| time (UTC) | temp C | wind direction | speed KPH | gust KPH | rain 1hr cm | rain 24hr cm | rain mn cm | humidity % | barometer mb |
| 20260509005704 | 16 | 195 | 16.1 | 27.4 | 0.00 | 0.00 | 0.00 | 63 | 1011.4 |
| 20260509005204 | 16 | 193 | 16.1 | 32.2 | 0.00 | 0.00 | 0.00 | 64 | 1011.3 |
| 20260509004704 | 16 | 174 | 16.1 | 27.4 | 0.00 | 0.00 | 0.00 | 63 | 1011.2 |
| 20260509004204 | 16 | 184 | 16.1 | 32.2 | 0.00 | 0.00 | 0.00 | 62 | 1011.2 |
| 20260509003704 | 16 | 186 | 14.5 | 29.0 | 0.00 | 0.00 | 0.00 | 62 | 1011.2 |
| 20260509003204 | 16 | 204 | 20.9 | 33.8 | 0.00 | 0.00 | 0.00 | 62 | 1011.0 |
| 20260509002204 | 16 | 195 | 14.5 | 24.1 | 0.00 | 0.00 | 0.00 | 61 | 1011.0 |
| 20260509001704 | 16 | 184 | 14.5 | 24.1 | 0.00 | 0.00 | 0.00 | 61 | 1010.9 |
| 20260509000704 | 17 | 211 | 11.3 | 24.1 | 0.00 | 0.00 | 0.00 | 59 | 1010.9 |
| 20260509000204 | 17 | 183 | 14.5 | 25.7 | 0.00 | 0.00 | 0.00 | 59 | 1010.9 |
| 20260508235704 | 17 | 192 | 14.5 | 27.4 | 0.00 | 0.00 | 0.00 | 59 | 1010.8 |
| 20260508234704 | 17 | 186 | 14.5 | 24.1 | 0.00 | 0.00 | 0.00 | 57 | 1010.8 |
| 20260508234204 | 17 | 195 | 11.3 | 22.5 | 0.00 | 0.00 | 0.00 | 58 | 1010.8 |
| 20260508233704 | 17 | 189 | 14.5 | 29.0 | 0.00 | 0.00 | 0.00 | 56 | 1010.7 |
| 20260508232705 | 17 | 199 | 19.3 | 32.2 | 0.00 | 0.00 | 0.00 | 54 | 1010.7 |
| 20260508232204 | 17 | 193 | 16.1 | 27.4 | 0.00 | 0.00 | 0.00 | 54 | 1010.7 |
| 20260508231204 | 17 | 198 | 17.7 | 27.4 | 0.00 | 0.00 | 0.00 | 53 | 1010.7 |
| 20260508230704 | 17 | 178 | 20.9 | 32.2 | 0.00 | 0.00 | 0.00 | 52 | 1010.6 |
| 20260508230205 | 17 | 196 | 16.1 | 27.4 | 0.00 | 0.00 | 0.00 | 54 | 1010.7 |
| 20260508225704 | 17 | 200 | 16.1 | 25.7 | 0.00 | 0.00 | 0.00 | 53 | 1010.6 |
| 20260508225204 | 17 | 196 | 20.9 | 29.0 | 0.00 | 0.00 | 0.00 | 51 | 1010.7 |
| 20260508224704 | 17 | 194 | 20.9 | 32.2 | 0.00 | 0.00 | 0.00 | 52 | 1010.6 |
| 20260508224205 | 17 | 188 | 19.3 | 32.2 | 0.00 | 0.00 | 0.00 | 51 | 1010.6 |
| 20260508223704 | 17 | 194 | 19.3 | 37.0 | 0.00 | 0.00 | 0.00 | 53 | 1010.5 |
| 20260508223204 | 17 | 204 | 20.9 | 37.0 | 0.00 | 0.00 | 0.00 | 52 | 1010.5 |
| 20260508222704 | 18 | 183 | 20.9 | 38.6 | 0.00 | 0.00 | 0.00 | 51 | 1010.5 |
| 20260508222204 | 18 | 194 | 22.5 | 33.8 | 0.00 | 0.00 | 0.00 | 51 | 1010.6 |
| 20260508221704 | 18 | 187 | 22.5 | 35.4 | 0.00 | 0.00 | 0.00 | 51 | 1010.6 |
| 20260508221205 | 18 | 203 | 19.3 | 32.2 | 0.00 | 0.00 | 0.00 | 51 | 1010.5 |
| 20260508220704 | 18 | 187 | 20.9 | 32.2 | 0.00 | 0.00 | 0.00 | 53 | 1010.4 |
| 20260508220204 | 18 | 199 | 22.5 | 33.8 | 0.00 | 0.00 | 0.00 | 51 | 1010.6 |
| 20260508215704 | 18 | 206 | 20.9 | 29.0 | 0.00 | 0.00 | 0.00 | 50 | 1010.4 |
| 20260508215204 | 19 | 218 | 20.9 | 32.2 | 0.00 | 0.00 | 0.00 | 51 | 1010.5 |
| 20260508214704 | 19 | 202 | 19.3 | 29.0 | 0.00 | 0.00 | 0.00 | 49 | 1010.5 |
| 20260508214204 | 20 | 205 | 20.9 | 32.2 | 0.00 | 0.00 | 0.00 | 51 | 1010.4 |
| 20260508213704 | 20 | 187 | 19.3 | 32.2 | 0.00 | 0.00 | 0.00 | 51 | 1010.4 |
| 20260508213204 | 20 | 190 | 20.9 | 33.8 | 0.00 | 0.00 | 0.00 | 49 | 1010.4 |
| 20260508212704 | 20 | 189 | 17.7 | 27.4 | 0.00 | 0.00 | 0.00 | 49 | 1010.4 |
| 20260508212204 | 20 | 186 | 20.9 | 35.4 | 0.00 | 0.00 | 0.00 | 50 | 1010.4 |
| 20260508211205 | 20 | 194 | 19.3 | 32.2 | 0.00 | 0.00 | 0.00 | 49 | 1010.5 |
| 20260508210705 | 20 | 192 | 20.9 | 33.8 | 0.00 | 0.00 | 0.00 | 45 | 1010.5 |
| 20260508210205 | 20 | 194 | 22.5 | 32.2 | 0.00 | 0.00 | 0.00 | 46 | 1010.5 |
| 20260508205704 | 20 | 199 | 20.9 | 32.2 | 0.00 | 0.00 | 0.00 | 49 | 1010.6 |
| 20260508205204 | 20 | 202 | 20.9 | 27.4 | 0.00 | 0.00 | 0.00 | 47 | 1010.7 |
| 20260508204704 | 20 | 203 | 17.7 | 27.4 | 0.00 | 0.00 | 0.00 | 48 | 1010.7 |
| 20260508203704 | 20 | 209 | 25.7 | 41.8 | 0.00 | 0.00 | 0.00 | 45 | 1010.7 |
| 20260508203204 | 20 | 194 | 22.5 | 33.8 | 0.00 | 0.00 | 0.00 | 48 | 1010.7 |
| 20260508202704 | 20 | 198 | 20.9 | 33.8 | 0.00 | 0.00 | 0.00 | 46 | 1010.8 |
| 20260508202204 | 20 | 195 | 25.7 | 37.0 | 0.00 | 0.00 | 0.00 | 48 | 1010.9 |
| 20260508201704 | 20 | 187 | 24.1 | 35.4 | 0.00 | 0.00 | 0.00 | 47 | 1011.0 |
| 20260508201205 | 20 | 203 | 22.5 | 38.6 | 0.00 | 0.00 | 0.00 | 48 | 1011.0 |
| 20260508200704 | 20 | 187 | 19.3 | 32.2 | 0.00 | 0.00 | 0.00 | 50 | 1011.2 |
| 20260508200204 | 20 | 194 | 20.9 | 37.0 | 0.00 | 0.00 | 0.00 | 49 | 1011.3 |
| 20260508195704 | 20 | 191 | 20.9 | 32.2 | 0.00 | 0.00 | 0.00 | 49 | 1011.3 |
| 20260508195204 | 20 | 198 | 19.3 | 33.8 | 0.00 | 0.00 | 0.00 | 49 | 1011.4 |
| 20260508194705 | 20 | 206 | 19.3 | 32.2 | 0.00 | 0.00 | 0.00 | 48 | 1011.4 |
| 20260508194204 | 20 | 203 | 19.3 | 24.1 | 0.00 | 0.00 | 0.00 | 49 | 1011.5 |
| 20260508193704 | 20 | 195 | 20.9 | 35.4 | 0.00 | 0.00 | 0.00 | 46 | 1011.4 |
| 20260508193204 | 20 | 190 | 22.5 | 32.2 | 0.00 | 0.00 | 0.00 | 48 | 1011.5 |
| 20260508192204 | 20 | 203 | 22.5 | 32.2 | 0.00 | 0.00 | 0.00 | 51 | 1011.6 |
| 20260508191704 | 20 | 198 | 16.1 | 29.0 | 0.00 | 0.00 | 0.00 | 48 | 1011.7 |
| 20260508191205 | 20 | 199 | 22.5 | 35.4 | 0.00 | 0.00 | 0.00 | 43 | 1011.8 |
| 20260508185205 | 19 | 200 | 20.9 | 38.6 | 0.00 | 0.00 | 0.00 | 47 | 1012.1 |
| 20260508184704 | 19 | 206 | 20.9 | 33.8 | 0.00 | 0.00 | 0.00 | 47 | 1012.1 |
| 20260508184204 | 19 | 188 | 20.9 | 35.4 | 0.00 | 0.00 | 0.00 | 47 | 1012.1 |
| 20260508183704 | 19 | 203 | 20.9 | 32.2 | 0.00 | 0.00 | 0.00 | 46 | 1012.2 |
| 20260508183204 | 19 | 205 | 22.5 | 32.2 | 0.00 | 0.00 | 0.00 | 48 | 1012.2 |
| 20260508182204 | 19 | 198 | 22.5 | 32.2 | 0.00 | 0.00 | 0.00 | 47 | 1012.2 |
| 20260508181705 | 19 | 205 | 24.1 | 46.7 | 0.00 | 0.00 | 0.00 | 50 | 1012.3 |
| 20260508181204 | 19 | 198 | 24.1 | 35.4 | 0.00 | 0.00 | 0.00 | 46 | 1012.3 |
| 20260508180704 | 19 | 203 | 22.5 | 33.8 | 0.00 | 0.00 | 0.00 | 46 | 1012.4 |
| 20260508180204 | 19 | 202 | 25.7 | 37.0 | 0.00 | 0.00 | 0.00 | 46 | 1012.3 |
| 20260508174204 | 19 | 192 | 20.9 | 32.2 | 0.00 | 0.00 | 0.00 | 44 | 1012.4 |
| 20260508173704 | 19 | 208 | 20.9 | 29.0 | 0.00 | 0.00 | 0.00 | 46 | 1012.6 |
| 20260508173204 | 18 | 186 | 20.9 | 29.0 | 0.00 | 0.00 | 0.00 | 45 | 1012.6 |
| 20260508172704 | 18 | 185 | 19.3 | 29.0 | 0.00 | 0.00 | 0.00 | 42 | 1012.7 |
| 20260508171704 | 18 | 196 | 16.1 | 25.7 | 0.00 | 0.00 | 0.00 | 44 | 1012.9 |
| 20260508171205 | 18 | 192 | 20.9 | 32.2 | 0.00 | 0.00 | 0.00 | 44 | 1013.0 |
| 20260508170704 | 18 | 200 | 22.5 | 32.2 | 0.00 | 0.00 | 0.00 | 45 | 1013.0 |
| 20260508170204 | 18 | 200 | 12.9 | 22.5 | 0.00 | 0.00 | 0.00 | 42 | 1013.0 |
| 20260508165704 | 18 | 164 | 16.1 | 29.0 | 0.00 | 0.00 | 0.00 | 45 | 1013.1 |
| 20260508165204 | 18 | 209 | 17.7 | 29.0 | 0.00 | 0.00 | 0.00 | 41 | 1013.1 |
| 20260508164704 | 18 | 179 | 20.9 | 32.2 | 0.00 | 0.00 | 0.00 | 38 | 1013.2 |
| 20260508163704 | 18 | 193 | 12.9 | 20.9 | 0.00 | 0.00 | 0.00 | 43 | 1013.2 |
| 20260508163204 | 18 | 182 | 19.3 | 29.0 | 0.00 | 0.00 | 0.00 | 42 | 1013.3 |
| 20260508162704 | 18 | 198 | 12.9 | 25.7 | 0.00 | 0.00 | 0.00 | 43 | 1013.4 |
| 20260508161704 | 18 | 156 | 12.9 | 20.9 | 0.00 | 0.00 | 0.00 | 44 | 1013.5 |
| 20260508161204 | 18 | 189 | 14.5 | 22.5 | 0.00 | 0.00 | 0.00 | 44 | 1013.5 |
| 20260508160204 | 18 | 178 | 11.3 | 20.9 | 0.00 | 0.00 | 0.00 | 44 | 1013.7 |
| 20260508155705 | 18 | 180 | 16.1 | 27.4 | 0.00 | 0.00 | 0.00 | 42 | 1013.7 |
| 20260508155204 | 18 | 203 | 14.5 | 22.5 | 0.00 | 0.00 | 0.00 | 44 | 1013.7 |
| 20260508154704 | 18 | 197 | 17.7 | 22.5 | 0.00 | 0.00 | 0.00 | 44 | 1013.6 |
| 20260508154204 | 18 | 200 | 12.9 | 22.5 | 0.00 | 0.00 | 0.00 | 43 | 1013.7 |
| 20260508153204 | 18 | 212 | 14.5 | 20.9 | 0.00 | 0.00 | 0.00 | 43 | 1014.0 |
| 20260508152705 | 18 | 210 | 11.3 | 19.3 | 0.00 | 0.00 | 0.00 | 39 | 1014.0 |
| 20260508152204 | 18 | 227 | 9.7 | 16.1 | 0.00 | 0.00 | 0.00 | 39 | 1014.0 |
| 20260508150704 | 18 | 218 | 9.7 | 14.5 | 0.00 | 0.00 | 0.00 | 36 | 1014.2 |
| 20260508150205 | 18 | 241 | 6.4 | 19.3 | 0.00 | 0.00 | 0.00 | 35 | 1014.1 |
| 20260508145704 | 18 | 229 | 8.0 | 14.5 | 0.00 | 0.00 | 0.00 | 34 | 1014.1 |
| 20260508145204 | 18 | 220 | 9.7 | 14.5 | 0.00 | 0.00 | 0.00 | 36 | 1014.0 |
| 20260508144204 | 18 | 232 | 8.0 | 16.1 | 0.00 | 0.00 | 0.00 | 45 | 1014.2 |
| 20260508143204 | 18 | 211 | 4.8 | 9.7 | 0.00 | 0.00 | 0.00 | 42 | 1014.2 |
| 20260508142703 | 18 | 207 | 8.0 | 11.3 | 0.00 | 0.00 | 0.00 | 43 | 1014.2 |
| 20260508142204 | 17 | 220 | 3.2 | 4.8 | 0.00 | 0.00 | 0.00 | 40 | 1014.2 |
| 20260508141704 | 17 | 204 | 4.8 | 4.8 | 0.00 | 0.00 | 0.00 | 39 | 1014.3 |
| 20260508141204 | 17 | 200 | 4.8 | 4.8 | 0.00 | 0.00 | 0.00 | 37 | 1014.2 |
| 20260508140704 | 17 | 191 | 3.2 | 4.8 | 0.00 | 0.00 | 0.00 | 37 | 1014.2 |
| 20260508140204 | 17 | 202 | 3.2 | 4.8 | 0.00 | 0.00 | 0.00 | 40 | 1014.3 |
| 20260508135704 | 17 | 327 | 0.0 | 3.2 | 0.00 | 0.00 | 0.00 | 39 | 1014.4 |
| 20260508135204 | 16 | 333 | 3.2 | 4.8 | 0.00 | 0.00 | 0.00 | 40 | 1014.4 |
| 20260508134704 | 16 | 212 | 4.8 | 11.3 | 0.00 | 0.00 | 0.00 | 43 | 1014.4 |
| 20260508134204 | 16 | 260 | 1.6 | 4.8 | 0.00 | 0.00 | 0.00 | 41 | 1014.4 |
| 20260508133704 | 16 | 82 | 0.0 | 4.8 | 0.00 | 0.00 | 0.00 | 40 | 1014.4 |
| 20260508133204 | 16 | 350 | 3.2 | 8.0 | 0.00 | 0.00 | 0.00 | 40 | 1014.4 |
| 20260508132704 | 16 | 305 | 4.8 | 9.7 | 0.00 | 0.00 | 0.00 | 42 | 1014.5 |
| 20260508132204 | 16 | 83 | 1.6 | 4.8 | 0.00 | 0.00 | 0.00 | 43 | 1014.5 |
| 20260508131204 | 16 | 358 | 4.8 | 11.3 | 0.00 | 0.00 | 0.00 | 46 | 1014.5 |
| 20260508130204 | 16 | 356 | 4.8 | 8.0 | 0.00 | 0.00 | 0.00 | 48 | 1014.6 |
| 20260508125704 | 16 | 51 | 4.8 | 8.0 | 0.00 | 0.00 | 0.00 | 50 | 1014.4 |
| 20260508125204 | 15 | 62 | 0.0 | 1.6 | 0.00 | 0.00 | 0.00 | 50 | 1014.4 |
| 20260508124704 | 15 | 335 | 1.6 | 8.0 | 0.00 | 0.00 | 0.00 | 50 | 1014.5 |
| 20260508124204 | 15 | 271 | 1.6 | 3.2 | 0.00 | 0.00 | 0.00 | 51 | 1014.4 |
| 20260508123203 | 15 | 7 | 4.8 | 8.0 | 0.00 | 0.00 | 0.00 | 51 | 1014.3 |
| 20260508122704 | 15 | 350 | 3.2 | 8.0 | 0.00 | 0.00 | 0.00 | 53 | 1014.3 |
| 20260508122205 | 15 | 354 | 3.2 | 8.0 | 0.00 | 0.00 | 0.00 | 52 | 1014.3 |
| 20260508121704 | 15 | 359 | 4.8 | 11.3 | 0.00 | 0.00 | 0.00 | 55 | 1014.3 |
| 20260508121204 | 15 | 346 | 3.2 | 4.8 | 0.00 | 0.00 | 0.00 | 55 | 1014.1 |
| 20260508120704 | 14 | 295 | 1.6 | 4.8 | 0.00 | 0.00 | 0.00 | 56 | 1014.2 |
| 20260508120204 | 14 | 326 | 3.2 | 4.8 | 0.00 | 0.00 | 0.00 | 56 | 1014.1 |
| 20260508115704 | 13 | 356 | 3.2 | 9.7 | 0.00 | 0.00 | 0.00 | 54 | 1014.0 |
| 20260508115204 | 13 | 327 | 1.6 | 4.8 | 0.00 | 0.00 | 0.00 | 56 | 1013.9 |
| 20260508114204 | 13 | 335 | 0.0 | 4.8 | 0.00 | 0.00 | 0.00 | 54 | 1013.9 |
| 20260508113204 | 12 | 25 | 0.0 | 4.8 | 0.00 | 0.00 | 0.00 | 59 | 1013.7 |
| 20260508112704 | 12 | 8 | 1.6 | 4.8 | 0.00 | 0.00 | 0.00 | 59 | 1013.7 |
| 20260508112203 | 11 | 338 | 0.0 | 3.2 | 0.00 | 0.00 | 0.00 | 62 | 1013.6 |
| 20260508111203 | 11 | 348 | 1.6 | 4.8 | 0.00 | 0.00 | 0.00 | 63 | 1013.4 |
| 20260508110704 | 11 | 357 | 3.2 | 4.8 | 0.00 | 0.00 | 0.00 | 64 | 1013.5 |
| 20260508110204 | 11 | 347 | 3.2 | 4.8 | 0.00 | 0.00 | 0.00 | 63 | 1013.4 |
| 20260508105704 | 11 | 9 | 1.6 | 4.8 | 0.00 | 0.00 | 0.00 | 64 | 1013.3 |
| 20260508105204 | 11 | 10 | 0.0 | 4.8 | 0.00 | 0.00 | 0.00 | 64 | 1013.2 |
| 20260508104704 | 11 | 352 | 1.6 | 4.8 | 0.00 | 0.00 | 0.00 | 63 | 1013.1 |
| 20260508104204 | 11 | 352 | 1.6 | 4.8 | 0.00 | 0.00 | 0.00 | 63 | 1013.1 |
| 20260508102704 | 11 | 1 | 0.0 | 4.8 | 0.00 | 0.03 | 0.00 | 62 | 1012.8 |
| 20260508102204 | 11 | 348 | 3.2 | 8.0 | 0.00 | 0.03 | 0.00 | 62 | 1012.8 |
| 20260508101704 | 11 | 350 | 1.6 | 9.7 | 0.00 | 0.03 | 0.00 | 62 | 1012.7 |
| 20260508101204 | 11 | 358 | 1.6 | 4.8 | 0.00 | 0.03 | 0.00 | 62 | 1012.6 |
| 20260508100704 | 11 | 347 | 1.6 | 4.8 | 0.00 | 0.03 | 0.00 | 62 | 1012.6 |
| 20260508100204 | 11 | 344 | 0.0 | 4.8 | 0.00 | 0.03 | 0.00 | 63 | 1012.7 |
| 20260508095205 | 11 | 351 | 1.6 | 8.0 | 0.00 | 0.03 | 0.00 | 62 | 1012.6 |
| 20260508094706 | 11 | 339 | 3.2 | 8.0 | 0.00 | 0.03 | 0.00 | 61 | 1012.5 |
| 20260508094205 | 11 | 4 | 1.6 | 8.0 | 0.00 | 0.03 | 0.00 | 61 | 1012.6 |
| 20260508093706 | 11 | 356 | 3.2 | 8.0 | 0.00 | 0.03 | 0.00 | 61 | 1012.6 |
| 20260508093205 | 11 | 344 | 1.6 | 9.7 | 0.00 | 0.03 | 0.00 | 62 | 1012.5 |
| 20260508092705 | 11 | 1 | 1.6 | 4.8 | 0.00 | 0.03 | 0.00 | 62 | 1012.5 |
| 20260508092205 | 11 | 353 | 6.4 | 14.5 | 0.00 | 0.03 | 0.00 | 64 | 1012.5 |
| 20260508091706 | 11 | 355 | 4.8 | 14.5 | 0.00 | 0.03 | 0.00 | 66 | 1012.4 |
| 20260508091205 | 11 | 0 | 4.8 | 11.3 | 0.00 | 0.03 | 0.00 | 67 | 1012.3 |
| 20260508085706 | 11 | 345 | 4.8 | 9.7 | 0.00 | 0.03 | 0.00 | 67 | 1012.0 |
| 20260508085205 | 11 | 337 | 3.2 | 8.0 | 0.00 | 0.03 | 0.00 | 68 | 1012.1 |
| 20260508084705 | 11 | 351 | 4.8 | 14.5 | 0.00 | 0.03 | 0.00 | 67 | 1011.9 |
| 20260508084205 | 11 | 334 | 8.0 | 19.3 | 0.00 | 0.03 | 0.00 | 68 | 1011.8 |
| 20260508083706 | 11 | 354 | 3.2 | 11.3 | 0.00 | 0.03 | 0.00 | 69 | 1011.8 |
| 20260508083205 | 11 | 339 | 3.2 | 14.5 | 0.00 | 0.03 | 0.00 | 70 | 1011.7 |
| 20260508082706 | 11 | 359 | 4.8 | 12.9 | 0.00 | 0.03 | 0.00 | 70 | 1011.6 |
| 20260508082206 | 11 | 343 | 1.6 | 12.9 | 0.00 | 0.03 | 0.00 | 71 | 1011.6 |
| 20260508081705 | 11 | 331 | 3.2 | 11.3 | 0.00 | 0.03 | 0.00 | 71 | 1011.6 |
| 20260508081205 | 11 | 351 | 4.8 | 11.3 | 0.00 | 0.03 | 0.00 | 74 | 1011.6 |
| 20260508080206 | 11 | 331 | 3.2 | 9.7 | 0.00 | 0.03 | 0.00 | 75 | 1011.4 |
| 20260508075705 | 11 | 324 | 4.8 | 12.9 | 0.00 | 0.03 | 0.00 | 77 | 1011.3 |
| 20260508075205 | 11 | 319 | 4.8 | 14.5 | 0.00 | 0.03 | 0.00 | 78 | 1011.2 |
| 20260508074706 | 11 | 347 | 3.2 | 14.5 | 0.00 | 0.03 | 0.00 | 80 | 1011.2 |
| 20260508073705 | 11 | 334 | 4.8 | 19.3 | 0.00 | 0.03 | 0.00 | 82 | 1010.9 |
| 20260508073206 | 11 | 340 | 4.8 | 14.5 | 0.00 | 0.03 | 0.00 | 84 | 1010.8 |
| 20260508072705 | 11 | 343 | 0.0 | 4.8 | 0.00 | 0.03 | 0.00 | 85 | 1010.8 |
| 20260508072206 | 11 | 198 | 0.0 | 4.8 | 0.00 | 0.03 | 0.00 | 85 | 1010.7 |
| 20260508071705 | 11 | 259 | 1.6 | 9.7 | 0.00 | 0.03 | 0.00 | 85 | 1010.6 |
| 20260508071205 | 11 | 237 | 3.2 | 9.7 | 0.00 | 0.03 | 0.00 | 85 | 1010.6 |
| 20260508070205 | 11 | 322 | 3.2 | 4.8 | 0.00 | 0.03 | 0.00 | 85 | 1010.3 |
| 20260508065705 | 11 | 298 | 1.6 | 9.7 | 0.00 | 0.03 | 0.00 | 86 | 1010.3 |
| 20260508064705 | 11 | 5 | 1.6 | 4.8 | 0.00 | 0.03 | 0.00 | 85 | 1010.1 |
| 20260508064206 | 11 | 280 | 3.2 | 8.0 | 0.00 | 0.03 | 0.00 | 85 | 1010.0 |
| 20260508063707 | 11 | 332 | 0.0 | 8.0 | 0.00 | 0.03 | 0.00 | 85 | 1010.0 |
| 20260508063205 | 11 | 226 | 1.6 | 8.0 | 0.00 | 0.03 | 0.00 | 85 | 1010.0 |
| 20260508062705 | 11 | 281 | 1.6 | 4.8 | 0.00 | 0.03 | 0.00 | 85 | 1010.0 |
| 20260508061706 | 11 | 289 | 0.0 | 11.3 | 0.00 | 0.03 | 0.00 | 85 | 1010.0 |
| 20260508061206 | 11 | 267 | 3.2 | 11.3 | 0.00 | 0.05 | 0.00 | 84 | 1010.1 |
| 20260508060705 | 11 | 271 | 1.6 | 4.8 | 0.00 | 0.05 | 0.00 | 84 | 1010.1 |
| 20260508060206 | 11 | 270 | 6.4 | 11.3 | 0.00 | 0.05 | 0.00 | 85 | 1010.1 |
| 20260508055706 | 11 | 271 | 3.2 | 9.7 | 0.00 | 0.05 | 0.00 | 84 | 1010.1 |
| 20260508055205 | 11 | 245 | 1.6 | 9.7 | 0.00 | 0.08 | 0.00 | 84 | 1010.1 |
| 20260508054706 | 11 | 247 | 1.6 | 8.0 | 0.00 | 0.13 | 0.00 | 83 | 1010.1 |
| 20260508053706 | 11 | 254 | 3.2 | 14.5 | 0.00 | 0.20 | 0.00 | 82 | 1010.1 |
| 20260508053205 | 11 | 238 | 3.2 | 14.5 | 0.00 | 0.30 | 0.00 | 82 | 1010.0 |
| 20260508052705 | 11 | 232 | 8.0 | 16.1 | 0.00 | 0.33 | 0.00 | 82 | 1010.1 |
| 20260508052205 | 11 | 262 | 3.2 | 12.9 | 0.00 | 0.36 | 0.00 | 82 | 1010.2 |
| 20260508051706 | 12 | 231 | 3.2 | 14.5 | 0.00 | 0.41 | 0.00 | 82 | 1010.2 |
| 20260508051205 | 12 | 237 | 3.2 | 14.5 | 0.00 | 0.41 | 0.00 | 82 | 1010.2 |
| 20260508050206 | 12 | 238 | 3.2 | 9.7 | 0.00 | 0.41 | 0.00 | 82 | 1010.1 |
| 20260508045205 | 12 | 260 | 3.2 | 11.3 | 0.00 | 0.41 | 0.00 | 82 | 1010.1 |
| 20260508044205 | 12 | 289 | 3.2 | 14.5 | 0.00 | 0.41 | 0.00 | 82 | 1010.1 |
| 20260508043705 | 12 | 242 | 3.2 | 16.1 | 0.00 | 0.41 | 0.00 | 82 | 1009.9 |
| 20260508043205 | 12 | 263 | 6.4 | 16.1 | 0.00 | 0.41 | 0.00 | 82 | 1009.9 |
| 20260508042706 | 12 | 243 | 3.2 | 19.3 | 0.00 | 0.41 | 0.00 | 83 | 1009.9 |
| 20260508042206 | 12 | 258 | 4.8 | 16.1 | 0.00 | 0.41 | 0.00 | 83 | 1009.9 |
| 20260508041705 | 11 | 245 | 4.8 | 14.5 | 0.00 | 0.41 | 0.00 | 83 | 1009.8 |
| 20260508040705 | 11 | 255 | 4.8 | 12.9 | 0.00 | 0.41 | 0.00 | 84 | 1009.7 |
| 20260508040205 | 11 | 239 | 4.8 | 12.9 | 0.00 | 0.41 | 0.00 | 83 | 1009.7 |
| 20260508035706 | 11 | 302 | 0.0 | 8.0 | 0.00 | 0.41 | 0.41 | 83 | 1009.7 |
| 20260508035205 | 11 | 222 | 1.6 | 4.8 | 0.00 | 0.41 | 0.41 | 83 | 1009.6 |
| 20260508034705 | 11 | 317 | 1.6 | 4.8 | 0.00 | 0.41 | 0.41 | 82 | 1009.7 |
| 20260508033205 | 11 | 280 | 4.8 | 11.3 | 0.00 | 0.41 | 0.41 | 81 | 1009.6 |
| 20260508032706 | 11 | 237 | 3.2 | 11.3 | 0.00 | 0.41 | 0.41 | 81 | 1009.5 |
| 20260508032205 | 11 | 282 | 4.8 | 9.7 | 0.00 | 0.41 | 0.41 | 81 | 1009.6 |
| 20260508031206 | 11 | 255 | 3.2 | 11.3 | 0.00 | 0.41 | 0.41 | 81 | 1009.8 |
| 20260508024205 | 11 | 251 | 1.6 | 11.3 | 0.00 | 0.41 | 0.41 | 78 | 1009.8 |
| 20260508023705 | 11 | 237 | 3.2 | 14.5 | 0.00 | 0.41 | 0.41 | 78 | 1009.7 |
| 20260508021705 | 10 | 239 | 3.2 | 11.3 | 0.00 | 0.41 | 0.41 | 78 | 1009.6 |
| 20260508021205 | 10 | 222 | 3.2 | 8.0 | 0.00 | 0.41 | 0.41 | 78 | 1009.6 |
| 20260508020705 | 10 | 100 | 3.2 | 9.7 | 0.00 | 0.41 | 0.41 | 78 | 1009.6 |
| 20260508020206 | 10 | 274 | 4.8 | 11.3 | 0.00 | 0.41 | 0.41 | 78 | 1009.6 |
| 20260508015705 | 10 | 244 | 3.2 | 14.5 | 0.00 | 0.41 | 0.41 | 78 | 1009.5 |
| 20260508014706 | 10 | 2 | 1.6 | 8.0 | 0.00 | 0.41 | 0.41 | 78 | 1009.7 |
| 20260508013705 | 10 | 197 | 1.6 | 3.2 | 0.00 | 0.41 | 0.41 | 78 | 1009.5 |
| 20260508012705 | 10 | 244 | 6.4 | 11.3 | 0.00 | 0.41 | 0.41 | 78 | 1009.3 |
| 20260508012205 | 10 | 290 | 1.6 | 9.7 | 0.00 | 0.41 | 0.41 | 78 | 1009.3 |
| 20260508011705 | 10 | 289 | 3.2 | 8.0 | 0.00 | 0.41 | 0.41 | 78 | 1009.2 |
| 20260508010705 | 10 | 286 | 4.8 | 11.3 | 0.00 | 0.41 | 0.41 | 77 | 1008.9 |
| 20260508010205 | 10 | 245 | 4.8 | 12.9 | 0.00 | 0.41 | 0.41 | 77 | 1008.9 |